Location: *
(48.8667°N, 2.3331°E)
Time: 23:42:36
(UTC+00:00)

Cosmos 841 Rocket - Pass Details

Date: 09 April 2020
Orbit: 747 x 772 km, 74.0° (Epoch: 23 May)

Event Time Altitude Azimuth Distance (km) Brightness Sun altitude
Rises 20:20:11 0° 341° (NNW) 3,260 7.7 -16.7°
Reaches altitude 10° 20:22:46 10° 349° (N) 2,328 6.6 -17.1°
Maximum altitude 20:27:40 37° 57° (ENE) 1,179 4.3 -17.7°
Enters shadow 20:29:31 29° 99° (E) 1,400 4.4 -18.0°
